Voltar ao catálogo

STARLINK-38006

AtivoComunicaçõesSSO
NORAD 69755·PAYLOAD·🇺🇸 United States

Lançado Jul 2, 2026 de Vandenberg Space Force Base

Loading…

Próximas Passagens (próximas 24 horas)

TLE

AtualizadoSource: CelesTrak SupGP

Época: Sep 15, 2026, 03:07 UTC

1 69755C 26150S   26258.13034722 -.00042223  00000+0 -13103-2 0  2583
2 69755  97.2851  97.1993 0001741  94.1221  32.9331 15.33469542    10

Acompanhe STARLINK-38006 em tempo real com AllMySat

Download on the App Store